DW4379 Weather Reports


Display with metric or nautical units.
time (UTC)temp
F
wind
direction
speed
MPH
gust
MPH
rain 1hr
in
rain 24hr
in
rain mn
in
humidity
%
barometer
mb
20260903035504 85 0 0.0 0.0 0.00 0.00 0.00 72 1013.9
20260903035218 85 0 0.0 0.0 0.00 0.00 0.00 72 1013.9
20260903034503 85 0 0.0 0.0 0.00 0.00 0.00 72 1013.9
20260903034003 85 0 0.0 0.0 0.00 0.00 0.00 71 1013.9
20260903033503 86 0 0.0 0.0 0.00 0.00 0.00 72 1013.9
20260903033004 86 0 0.0 0.0 0.00 0.00 0.00 71 1013.9
20260903032504 86 0 0.0 0.0 0.00 0.00 0.00 71 1013.9
20260903032003 86 0 0.0 0.0 0.00 0.00 0.00 71 1014.0
20260903031504 86 0 0.0 0.0 0.00 0.00 0.00 71 1014.0
20260903031004 86 0 0.0 0.0 0.00 0.00 0.00 71 1014.0
20260903030717 86 0 0.0 0.0 0.00 0.00 0.00 71 1014.0
20260903030003 87 0 0.0 0.0 0.00 0.00 0.00 71 1014.1
20260903025503 87 0 0.0 0.0 0.00 0.00 0.00 70 1014.1
20260903025004 87 0 0.0 0.0 0.00 0.00 0.00 71 1014.1
20260903024503 87 0 0.0 0.0 0.00 0.00 0.00 70 1014.1
20260903024003 87 0 0.0 0.0 0.00 0.00 0.00 70 1014.2
20260903023503 87 0 0.0 0.0 0.00 0.00 0.00 69 1014.1
20260903023003 88 0 0.0 0.0 0.00 0.00 0.00 69 1014.1
20260903022717 88 0 0.0 0.0 0.00 0.00 0.00 69 1014.1
20260903022004 88 0 0.0 0.0 0.00 0.00 0.00 69 1014.0
20260903021503 88 0 0.0 0.0 0.00 0.00 0.00 69 1014.0
20260903021003 88 0 0.0 0.0 0.00 0.00 0.00 70 1014.0
20260903020503 88 0 0.0 0.0 0.00 0.00 0.00 69 1014.0
20260903020004 88 0 0.0 0.0 0.00 0.00 0.00 70 1013.9
20260903015504 88 0 0.0 0.0 0.00 0.00 0.00 70 1013.9
20260903015003 88 0 0.0 0.0 0.00 0.00 0.00 69 1013.9
20260903014504 88 0 0.0 0.0 0.00 0.00 0.00 69 1013.8
20260903014218 89 0 0.0 0.0 0.00 0.00 0.00 69 1013.8
20260903013503 89 0 0.0 0.0 0.00 0.00 0.00 69 1013.6
20260903013004 89 0 0.0 0.0 0.00 0.00 0.00 68 1013.5
20260903012504 89 0 0.0 0.0 0.00 0.00 0.00 68 1013.5
20260903012004 89 0 0.0 0.0 0.00 0.00 0.00 68 1013.4
20260903011719 90 0 0.0 0.0 0.00 0.00 0.00 68 1013.5
20260903011003 90 0 0.0 0.0 0.00 0.00 0.00 68 1013.4
20260903010719 90 0 0.0 0.0 0.00 0.00 0.00 69 1013.3
20260903010004 90 0 0.0 0.0 0.00 0.00 0.00 70 1013.4
20260903005718 90 0 0.0 0.0 0.00 0.00 0.00 72 1013.3
20260903005004 90 0 0.0 0.0 0.00 0.00 0.00 71 1013.3
20260903004504 91 0 0.0 0.0 0.00 0.00 0.00 71 1013.3
20260903004004 91 0 0.0 0.0 0.00 0.00 0.00 70 1013.3
20260903003503 91 0 0.0 0.0 0.00 0.00 0.00 68 1013.2
20260903003004 91 0 0.0 0.0 0.00 0.00 0.00 67 1013.2
20260903002504 92 0 0.0 0.0 0.00 0.00 0.00 68 1013.2
20260903002004 92 0 0.0 0.0 0.00 0.00 0.00 68 1013.2
20260903001503 92 0 0.0 0.0 0.00 0.00 0.00 67 1013.2
20260903001217 93 0 0.0 0.0 0.00 0.00 0.00 66 1013.2
20260903000504 93 0 0.0 0.0 0.00 0.00 0.00 66 1013.3
20260903000218 93 0 0.0 0.0 0.00 0.00 0.00 65 1013.3
20260902235504 94 0 0.0 0.0 0.00 0.00 0.00 64 1013.4
20260902235004 94 0 0.0 0.0 0.00 0.00 0.00 63 1013.4
20260902234504 94 0 0.0 0.0 0.00 0.00 0.00 63 1013.4
20260902234008 94 0 0.0 0.0 0.00 0.00 0.00 62 1013.4
20260902233504 94 0 0.0 0.0 0.00 0.00 0.00 62 1013.4
20260902233217 94 0 0.0 0.0 0.00 0.00 0.00 61 1013.4
20260902232504 95 0 0.0 0.0 0.00 0.00 0.00 62 1013.4
20260902232003 95 0 0.0 0.0 0.00 0.00 0.00 61 1013.4
20260902231504 95 0 0.0 0.0 0.00 0.00 0.00 60 1013.4
20260902231003 95 0 0.0 0.0 0.00 0.00 0.00 61 1013.4
20260902230504 95 0 0.0 0.0 0.00 0.00 0.00 61 1013.4
20260902230004 95 0 0.0 0.0 0.00 0.00 0.00 61 1013.3
20260902225718 95 0 0.0 0.0 0.00 0.00 0.00 61 1013.2
20260902225003 95 104 0.0 1.0 0.00 0.00 0.00 60 1013.3
20260902224717 95 106 0.0 1.0 0.00 0.00 0.00 60 1013.3
20260902224003 95 107 0.0 1.0 0.00 0.00 0.00 59 1013.4
20260902223503 96 0 0.0 0.0 0.00 0.00 0.00 60 1013.5
20260902223004 96 0 0.0 0.0 0.00 0.00 0.00 59 1013.5
20260902222503 96 129 0.0 1.0 0.00 0.00 0.00 58 1013.5
20260902222005 96 144 0.0 1.0 0.00 0.00 0.00 57 1013.6
20260902221503 96 153 0.0 1.0 0.00 0.00 0.00 59 1013.5
20260902221003 96 112 0.0 2.0 0.00 0.00 0.00 59 1013.6
20260902220504 96 112 0.0 2.0 0.00 0.00 0.00 57 1013.6
20260902220004 96 229 0.0 1.0 0.00 0.00 0.00 58 1013.6
20260902215504 96 229 0.0 1.0 0.00 0.00 0.00 58 1013.6
20260902215004 96 0 0.0 0.0 0.00 0.00 0.00 58 1013.7
20260902214504 96 0 0.0 0.0 0.00 0.00 0.00 57 1013.7
20260902214003 97 0 0.0 0.0 0.00 0.00 0.00 57 1013.7
20260902213504 96 0 0.0 0.0 0.00 0.00 0.00 57 1013.6
20260902213004 97 0 0.0 0.0 0.00 0.00 0.00 57 1013.7
20260902212504 97 229 0.0 1.0 0.00 0.00 0.00 57 1013.6
20260902212004 97 229 0.0 1.0 0.00 0.00 0.00 55 1013.8
20260902211503 98 238 0.0 2.0 0.00 0.00 0.00 55 1013.7
20260902211004 98 218 0.0 2.0 0.00 0.00 0.00 54 1013.8
20260902210504 98 186 0.0 2.0 0.00 0.00 0.00 53 1013.8
20260902210218 97 224 0.0 1.0 0.00 0.00 0.00 54 1013.9
20260902205503 97 140 0.0 4.0 0.00 0.00 0.00 54 1014.0
20260902205003 96 127 0.0 4.0 0.00 0.00 0.00 56 1013.9
20260902204503 96 116 0.0 2.0 0.00 0.00 0.00 56 1014.0
20260902204004 96 115 0.0 2.0 0.00 0.00 0.00 56 1014.1
20260902203504 97 155 0.0 2.0 0.00 0.00 0.00 55 1014.2
20260902203218 97 209 0.0 2.0 0.00 0.00 0.00 54 1014.1
20260902202504 98 202 0.0 1.0 0.00 0.00 0.00 54 1014.3
20260902202004 98 116 0.0 1.0 0.00 0.00 0.00 53 1014.3
20260902201503 98 147 0.0 1.0 0.00 0.00 0.00 53 1014.3
20260902201003 98 171 0.0 1.0 0.00 0.00 0.00 53 1014.4
20260902200504 99 188 0.0 1.0 0.00 0.00 0.00 51 1014.5
20260902200217 99 232 0.0 3.0 0.00 0.00 0.00 52 1014.5
20260902195504 100 253 0.0 3.0 0.00 0.00 0.00 51 1014.5
20260902195004 100 134 0.0 2.0 0.00 0.00 0.00 51 1014.5
20260902194503 100 144 0.0 2.0 0.00 0.00 0.00 50 1014.6
20260902194004 100 64 0.0 2.0 0.00 0.00 0.00 51 1014.5
20260902193503 100 23 0.0 2.0 0.00 0.00 0.00 51 1014.7
20260902193004 99 212 0.0 2.0 0.00 0.00 0.00 52 1014.8
20260902192504 99 221 0.0 2.0 0.00 0.00 0.00 53 1014.8
20260902192004 99 198 0.0 2.0 0.00 0.00 0.00 52 1014.9
20260902191503 99 252 0.0 2.0 0.00 0.00 0.00 51 1015.0
20260902191003 99 239 0.0 3.0 0.00 0.00 0.00 51 1014.9
20260902190504 100 229 0.0 3.0 0.00 0.00 0.00 52 1014.9
20260902190004 100 244 0.0 1.0 0.00 0.00 0.00 51 1015.0
20260902185504 100 232 0.0 1.0 0.00 0.00 0.00 51 1015.0
20260902185003 99 167 0.0 2.0 0.00 0.00 0.00 52 1014.9
20260902184718 99 158 0.0 2.0 0.00 0.00 0.00 52 1015.0
20260902184003 98 260 0.0 1.0 0.00 0.00 0.00 54 1015.0
20260902183504 98 263 0.0 1.0 0.00 0.00 0.00 54 1015.0
20260902183004 98 269 0.0 2.0 0.00 0.00 0.00 53 1015.1
20260902182504 97 243 0.0 4.0 0.00 0.00 0.00 54 1015.1
20260902182004 97 231 0.0 4.0 0.00 0.00 0.00 55 1015.0
20260902181718 97 207 0.0 4.0 0.00 0.00 0.00 53 1015.1
20260902181003 97 174 0.0 2.0 0.00 0.00 0.00 54 1015.2
20260902180718 97 246 0.0 2.0 0.00 0.00 0.00 53 1015.2
20260902180006 97 330 0.0 1.0 0.00 0.00 0.00 56 1015.2
20260902175503 96 273 0.0 1.0 0.00 0.00 0.00 57 1015.2
20260902175003 96 270 0.0 1.0 0.00 0.00 0.00 56 1015.4
20260902174503 96 238 0.0 3.0 0.00 0.00 0.00 56 1015.4
20260902174004 96 178 0.0 3.0 0.00 0.00 0.00 57 1015.6
20260902173718 95 304 0.0 1.0 0.00 0.00 0.00 57 1015.6
20260902173219 95 278 0.0 2.0 0.00 0.00 0.00 58 1015.6
20260902172503 95 279 0.0 2.0 0.00 0.00 0.00 59 1015.8
20260902172004 95 270 0.0 3.0 0.00 0.00 0.00 59 1015.8
20260902171717 94 264 0.0 3.0 0.00 0.00 0.00 59 1015.9
20260902171003 94 230 0.0 3.0 0.00 0.00 0.00 60 1015.9
20260902170504 94 250 0.0 4.0 0.00 0.00 0.00 60 1016.0
20260902170004 94 264 0.0 4.0 0.00 0.00 0.00 61 1016.0
20260902165717 94 261 0.0 4.0 0.00 0.00 0.00 61 1016.1
20260902165003 94 250 0.0 4.0 0.00 0.00 0.00 62 1016.0
20260902164504 93 274 0.0 2.0 0.00 0.00 0.00 62 1016.1
20260902164003 93 284 0.0 2.0 0.00 0.00 0.00 61 1016.1
20260902163717 93 275 0.0 2.0 0.00 0.00 0.00 61 1016.2
20260902163004 93 227 0.0 4.0 0.00 0.00 0.00 61 1016.1
20260902162504 93 232 0.0 4.0 0.00 0.00 0.00 61 1016.2
20260902162004 92 235 0.0 3.0 0.00 0.00 0.00 64 1016.3
20260902161503 92 241 0.0 3.0 0.00 0.00 0.00 63 1016.3
20260902161004 92 229 1.0 4.0 0.00 0.00 0.00 63 1016.2
20260902160717 92 206 0.0 4.0 0.00 0.00 0.00 64 1016.2
20260902160005 91 196 0.0 4.0 0.00 0.00 0.00 64 1016.3
20260902155503 91 229 0.0 2.0 0.00 0.00 0.00 66 1016.2
20260902155003 90 234 0.0 4.0 0.00 0.00 0.00 66 1016.2
20260902154504 90 226 0.0 4.0 0.00 0.00 0.00 66 1016.3
20260902154003 90 230 0.0 2.0 0.00 0.00 0.00 67 1016.4
20260902153503 90 181 0.0 2.0 0.00 0.00 0.00 70 1016.4
20260902153003 89 185 0.0 3.0 0.00 0.00 0.00 69 1016.3
20260902152717 89 207 0.0 3.0 0.00 0.00 0.00 69 1016.3
20260902152004 89 249 0.0 1.0 0.00 0.00 0.00 70 1016.3
20260902151504 89 225 0.0 1.0 0.00 0.00 0.00 71 1016.3
20260902151003 88 210 0.0 3.0 0.00 0.00 0.00 72 1016.1
20260902150504 88 222 0.0 3.0 0.00 0.00 0.00 72 1016.2
20260902150004 88 242 0.0 2.0 0.00 0.00 0.00 72 1016.2
20260902145504 87 211 0.0 4.0 0.00 0.00 0.00 72 1016.3
20260902145004 87 186 0.0 4.0 0.00 0.00 0.00 73 1016.2
20260902144504 87 101 0.0 2.0 0.00 0.00 0.00 74 1016.1
20260902144004 86 143 0.0 2.0 0.00 0.00 0.00 74 1016.2
20260902143504 86 164 0.0 1.0 0.00 0.00 0.00 76 1016.2
20260902143218 85 220 0.0 3.0 0.00 0.00 0.00 77 1016.3
20260902142503 85 196 0.0 3.0 0.00 0.00 0.00 76 1016.2
20260902142003 85 176 0.0 3.0 0.00 0.00 0.00 76 1016.1
20260902141718 84 211 0.0 3.0 0.00 0.00 0.00 78 1016.2
20260902141003 84 167 0.0 3.0 0.00 0.00 0.00 77 1016.2
20260902140719 84 157 0.0 2.0 0.00 0.00 0.00 79 1016.4
20260902140003 83 208 0.0 4.0 0.00 0.00 0.00 79 1016.3
20260902135504 83 185 0.0 4.0 0.00 0.00 0.00 79 1016.4
20260902135003 83 179 0.0 2.0 0.00 0.00 0.00 79 1016.4
20260902134718 83 187 0.0 2.0 0.00 0.00 0.00 79 1016.4
20260902134004 82 0 0.0 0.0 0.00 0.00 0.00 80 1016.7
20260902133504 82 0 0.0 0.0 0.00 0.00 0.00 80 1016.7
20260902133003 82 162 0.0 3.0 0.00 0.00 0.00 81 1016.7
20260902132503 82 162 0.0 3.0 0.00 0.00 0.00 81 1016.8
20260902132003 82 191 0.0 1.0 0.00 0.00 0.00 81 1016.9
20260902131504 81 189 0.0 1.0 0.00 0.00 0.00 81 1016.7
20260902131004 81 186 0.0 1.0 0.00 0.00 0.00 81 1016.6
20260902130503 81 0 0.0 0.0 0.00 0.00 0.00 81 1016.6
20260902130217 81 134 0.0 2.0 0.00 0.00 0.00 82 1016.6
20260902125504 81 127 0.0 2.0 0.00 0.00 0.00 82 1016.5
20260902125217 81 127 0.0 2.0 0.00 0.00 0.00 82 1016.5
20260902124504 80 113 0.0 4.0 0.00 0.00 0.00 83 1016.5
20260902124004 80 109 0.0 4.0 0.00 0.00 0.00 83 1016.5
20260902123503 80 113 0.0 2.0 0.00 0.00 0.00 82 1016.5
20260902123004 79 120 0.0 2.0 0.00 0.00 0.00 83 1016.6
20260902122504 79 0 0.0 0.0 0.00 0.00 0.00 85 1016.6
20260902122004 78 0 0.0 0.0 0.00 0.00 0.00 86 1016.7
20260902121503 77 0 0.0 0.0 0.00 0.00 0.00 87 1016.8
20260902121219 77 0 0.0 0.0 0.00 0.00 0.00 87 1016.7
20260902120718 77 0 0.0 0.0 0.00 0.00 0.00 87 1016.7
20260902120219 76 0 0.0 0.0 0.00 0.00 0.00 87 1016.7
20260902115504 76 0 0.0 0.0 0.00 0.00 0.00 87 1016.6
20260902115004 76 0 0.0 0.0 0.00 0.00 0.00 87 1016.5
20260902114503 76 0 0.0 0.0 0.00 0.00 0.00 87 1016.4
20260902114003 76 0 0.0 0.0 0.00 0.00 0.00 86 1016.3
20260902113503 77 0 0.0 0.0 0.00 0.00 0.00 85 1016.3
20260902113004 77 0 0.0 0.0 0.00 0.00 0.00 85 1016.3
20260902112503 77 0 0.0 0.0 0.00 0.00 0.00 85 1016.3
20260902112004 77 0 0.0 0.0 0.00 0.00 0.00 85 1016.3
20260902111503 77 0 0.0 0.0 0.00 0.00 0.00 85 1016.3
20260902111004 77 0 0.0 0.0 0.00 0.00 0.00 85 1016.4
20260902110504 77 0 0.0 0.0 0.00 0.00 0.00 85 1016.2
20260902110005 77 0 0.0 0.0 0.00 0.00 0.00 85 1016.1
20260902105504 77 0 0.0 0.0 0.00 0.00 0.00 85 1016.0
20260902105218 77 0 0.0 0.0 0.00 0.00 0.00 85 1016.1
20260902104504 77 0 0.0 0.0 0.00 0.00 0.00 85 1016.0
20260902104004 77 0 0.0 0.0 0.00 0.00 0.00 85 1015.9
20260902103717 77 0 0.0 0.0 0.00 0.00 0.00 85 1015.9
20260902103003 77 0 0.0 0.0 0.00 0.00 0.00 85 1015.8
20260902102503 77 0 0.0 0.0 0.00 0.00 0.00 84 1015.8
20260902102218 77 0 0.0 0.0 0.00 0.00 0.00 84 1015.8
20260902101503 77 0 0.0 0.0 0.00 0.00 0.00 84 1015.7
20260902101004 77 0 0.0 0.0 0.00 0.00 0.00 84 1015.7
20260902100504 78 0 0.0 0.0 0.00 0.00 0.00 84 1015.6
20260902100004 78 0 0.0 0.0 0.00 0.00 0.00 83 1015.7
20260902095503 78 0 0.0 0.0 0.00 0.00 0.00 83 1015.6
20260902095003 78 0 0.0 0.0 0.00 0.00 0.00 83 1015.6
20260902094503 78 0 0.0 0.0 0.00 0.00 0.00 83 1015.6
20260902094218 78 0 0.0 0.0 0.00 0.00 0.00 83 1015.6
20260902093504 78 0 0.0 0.0 0.00 0.00 0.00 83 1015.6
20260902093004 78 0 0.0 0.0 0.00 0.00 0.00 83 1015.6
20260902092504 78 0 0.0 0.0 0.00 0.00 0.00 83 1015.5
20260902092003 78 0 0.0 0.0 0.00 0.00 0.00 83 1015.6
20260902091719 78 0 0.0 0.0 0.00 0.00 0.00 83 1015.5
20260902091004 78 0 0.0 0.0 0.00 0.00 0.00 83 1015.5
20260902090504 78 0 0.0 0.0 0.00 0.00 0.00 83 1015.6
20260902090004 78 0 0.0 0.0 0.00 0.00 0.00 83 1015.5
20260902085504 78 0 0.0 0.0 0.00 0.00 0.00 83 1015.5
20260902085004 78 0 0.0 0.0 0.00 0.00 0.00 83 1015.4
20260902084718 78 0 0.0 0.0 0.00 0.00 0.00 83 1015.4
20260902084003 78 0 0.0 0.0 0.00 0.00 0.00 83 1015.3
20260902083504 78 0 0.0 0.0 0.00 0.00 0.00 83 1015.4
20260902083003 78 0 0.0 0.0 0.00 0.00 0.00 83 1015.3
20260902082718 78 0 0.0 0.0 0.00 0.00 0.00 83 1015.3
20260902082003 78 0 0.0 0.0 0.00 0.00 0.00 83 1015.3
20260902081503 78 0 0.0 0.0 0.00 0.00 0.00 83 1015.3
20260902081004 78 0 0.0 0.0 0.00 0.00 0.00 82 1015.3
20260902080503 78 0 0.0 0.0 0.00 0.00 0.00 82 1015.3
20260902080004 78 0 0.0 0.0 0.00 0.00 0.00 82 1015.4
20260902075503 79 0 0.0 0.0 0.00 0.00 0.00 82 1015.3
20260902075003 79 0 0.0 0.0 0.00 0.00 0.00 82 1015.3
20260902074503 79 0 0.0 0.0 0.00 0.00 0.00 82 1015.4
20260902074003 79 0 0.0 0.0 0.00 0.00 0.00 82 1015.4
20260902073504 79 0 0.0 0.0 0.00 0.00 0.00 81 1015.4
20260902073004 79 0 0.0 0.0 0.00 0.00 0.00 81 1015.3
20260902072503 79 0 0.0 0.0 0.00 0.00 0.00 80 1015.3
20260902072217 80 0 0.0 0.0 0.00 0.00 0.00 80 1015.3
20260902071504 80 0 0.0 0.0 0.00 0.00 0.00 80 1015.3
20260902071004 80 0 0.0 0.0 0.00 0.00 0.00 80 1015.4
20260902070504 80 0 0.0 0.0 0.00 0.00 0.00 80 1015.4
20260902070005 80 0 0.0 0.0 0.00 0.00 0.00 79 1015.3
20260902065503 80 0 0.0 0.0 0.00 0.00 0.00 79 1015.3
20260902065004 80 0 0.0 0.0 0.00 0.00 0.00 79 1015.3
20260902064503 80 0 0.0 0.0 0.00 0.00 0.00 78 1015.3
20260902064004 81 0 0.0 0.0 0.00 0.00 0.00 78 1015.3
20260902063504 81 0 0.0 0.0 0.00 0.00 0.00 78 1015.3
20260902063219 81 0 0.0 0.0 0.00 0.00 0.00 78 1015.3
20260902062504 81 0 0.0 0.0 0.00 0.00 0.00 78 1015.2
20260902062003 81 0 0.0 0.0 0.00 0.00 0.00 78 1015.2
20260902061503 81 0 0.0 0.0 0.00 0.00 0.00 78 1015.3
20260902061004 81 0 0.0 0.0 0.00 0.00 0.00 78 1015.3
20260902060504 81 0 0.0 0.0 0.00 0.00 0.00 78 1015.3
20260902060218 81 0 0.0 0.0 0.00 0.00 0.00 77 1015.2
20260902055717 81 0 0.0 0.0 0.00 0.00 0.00 77 1015.2
20260902055218 81 0 0.0 0.0 0.00 0.00 0.00 77 1015.1
20260902054717 81 0 0.0 0.0 0.00 0.00 0.00 77 1015.2
20260902054003 82 0 0.0 0.0 0.00 0.00 0.00 77 1015.2
20260902053504 82 0 0.0 0.0 0.00 0.00 0.00 77 1015.2
20260902053218 82 0 0.0 0.0 0.00 0.00 0.00 77 1015.2
20260902052504 82 0 0.0 0.0 0.00 0.00 0.00 77 1015.2
20260902052218 82 0 0.0 0.0 0.00 0.00 0.00 77 1015.3
20260902051503 82 0 0.0 0.0 0.00 0.00 0.00 76 1015.2
20260902051003 82 0 0.0 0.0 0.00 0.00 0.00 76 1015.2
20260902050504 83 0 0.0 0.0 0.00 0.00 0.00 76 1015.2
20260902050218 83 0 0.0 0.0 0.00 0.00 0.00 76 1015.2
20260902045508 83 0 0.0 0.0 0.00 0.00 0.00 75 1015.2
20260902045004 83 0 0.0 0.0 0.00 0.00 0.00 75 1015.1
20260902044503 83 0 0.0 0.0 0.00 0.00 0.00 74 1015.1
20260902044218 83 0 0.0 0.0 0.00 0.00 0.00 74 1015.1
20260902043504 83 0 0.0 0.0 0.00 0.00 0.00 74 1015.1
20260902043003 84 0 0.0 0.0 0.00 0.00 0.00 74 1015.1
20260902042503 84 0 0.0 0.0 0.00 0.00 0.00 74 1015.1
20260902042004 84 0 0.0 0.0 0.00 0.00 0.00 74 1015.2
20260902041504 84 0 0.0 0.0 0.00 0.00 0.00 73 1015.2
20260902041004 84 0 0.0 0.0 0.00 0.00 0.00 73 1015.3
20260902040503 84 0 0.0 0.0 0.00 0.00 0.00 73 1015.3
20260902040009 84 0 0.0 0.0 0.00 0.00 0.00 73 1015.2